TimePDT,TemperatureF,Dew PointF,Humidity,Sea Level PressureIn,VisibilityMPH,Wind Direction,Wind SpeedMPH,Gust SpeedMPH,PrecipitationIn,Events,Conditions,WindDirDegrees,DateUTC
12:53 AM,52.0,48.9,89,30.03,10.0,Calm,Calm,-,N/A,,Clear,0,2012-09-13 07:53:00
1:53 AM,50.0,48.0,93,30.03,10.0,Calm,Calm,-,N/A,,Clear,0,2012-09-13 08:53:00
2:53 AM,50.0,48.0,93,30.02,10.0,Calm,Calm,-,N/A,,Clear,0,2012-09-13 09:53:00
3:53 AM,50.0,46.9,89,30.02,10.0,Calm,Calm,-,N/A,,Clear,0,2012-09-13 10:53:00
4:53 AM,48.9,46.0,90,30.03,10.0,Calm,Calm,-,0.01,,Clear,0,2012-09-13 11:53:00
5:53 AM,48.9,46.0,90,30.03,10.0,Calm,Calm,-,N/A,,Clear,0,2012-09-13 12:53:00
6:53 AM,46.9,45.0,93,30.05,10.0,Calm,Calm,-,N/A,,Scattered Clouds,0,2012-09-13 13:53:00
7:42 AM,48.2,46.4,93,30.08,10.0,South,4.6,-,N/A,,Scattered Clouds,180,2012-09-13 14:42:00
7:53 AM,50.0,48.0,93,30.06,10.0,South,4.6,-,N/A,,Scattered Clouds,170,2012-09-13 14:53:00
8:53 AM,53.1,48.9,86,30.07,10.0,SE,3.5,-,N/A,,Scattered Clouds,130,2012-09-13 15:53:00
9:53 AM,59.0,50.0,72,30.07,10.0,Calm,Calm,-,N/A,,Scattered Clouds,0,2012-09-13 16:53:00
10:53 AM,66.0,51.1,59,30.08,10.0,SSE,4.6,-,N/A,,Clear,160,2012-09-13 17:53:00
11:53 AM,72.0,52.0,49,30.06,10.0,South,6.9,-,N/A,,Clear,170,2012-09-13 18:53:00
12:53 PM,77.0,51.1,40,30.04,10.0,Calm,Calm,-,N/A,,Mostly Cloudy,0,2012-09-13 19:53:00
1:53 PM,82.0,51.1,34,30.01,10.0,Variable,5.8,-,N/A,,Mostly Cloudy,0,2012-09-13 20:53:00
2:53 PM,84.9,50.0,30,29.99,10.0,SSE,5.8,-,N/A,,Mostly Cloudy,150,2012-09-13 21:53:00
3:53 PM,84.0,51.1,32,29.98,10.0,South,8.1,-,N/A,,Mostly Cloudy,180,2012-09-13 22:53:00
4:53 PM,82.0,50.0,33,29.97,10.0,South,11.5,-,N/A,,Clear,180,2012-09-13 23:53:00
5:53 PM,78.1,52.0,40,29.98,10.0,SSE,10.4,-,0.00,,Clear,150,2012-09-14 00:53:00
6:53 PM,68.0,51.1,55,29.99,10.0,SSE,10.4,-,N/A,,Mostly Cloudy,150,2012-09-14 01:53:00
7:53 PM,60.1,50.0,69,30.00,10.0,SSE,8.1,-,N/A,,Partly Cloudy,150,2012-09-14 02:53:00
8:53 PM,57.0,50.0,77,30.03,10.0,SE,6.9,-,N/A,,Clear,140,2012-09-14 03:53:00
9:53 PM,55.0,51.1,86,30.04,10.0,SE,4.6,-,N/A,,Clear,140,2012-09-14 04:53:00
10:53 PM,54.0,51.1,90,30.05,10.0,South,3.5,-,N/A,,Clear,170,2012-09-14 05:53:00
11:53 PM,54.0,51.1,90,30.05,10.0,Calm,Calm,-,N/A,,Clear,0,2012-09-14 06:53:00